Location: Chambry
(49.5926°N, 3.6579°E)
Time: 13:44:13
(UTC+00:00)

Daily predictions for brighter satellites

Satellite Brightness Start Highest point End
(mag) Time Altitude Azimuth Time Altitude Azimuth Time Altitude Azimuth
CZ-4 R/B 4.1 20:21:13 10° WSW 20:23:18 14° W 20:25:24 10° NW
USA 306 4.1 20:21:00 10° W 20:24:12 26° SW 20:27:29 10° SSE
Cosmos 1408 Rocket 3.7 20:20:44 10° N 20:25:12 68° ENE 20:29:37 10° SSE
Meteor 1-27 Rocket 4.1 20:21:50 10° SSE 20:27:00 43° E 20:32:14 10° NNE
Cosmos 1733 3.8 20:23:49 10° N 20:27:07 36° ENE 20:30:22 10° SE
CZ-4C R/B 3.3 20:24:22 10° NNE 20:28:17 81° ESE 20:32:19 10° SSW
Cosmos 1340 Rocket 3.6 20:26:29 10° SSE 20:30:03 32° E 20:33:37 10° NNE
IRS-1A Rocket 4.3 20:25:47 10° SSE 20:31:23 83° ENE 20:36:55 10° NNW
SPOT 5 2.8 20:31:23 10° S 20:35:50 75° WSW 20:40:11 10° NNW
Cosmos 1151 Rocket 4.0 20:33:06 10° SSE 20:36:53 30° E 20:40:41 10° NNE
Ariane Rocket 3.2 20:34:25 10° SSE 20:39:23 58° ENE 20:44:24 10° N
Cosmos 1726 2.8 20:41:04 10° NNW 20:44:03 41° W 20:46:59 10° SSW
USA 234 4.1 20:39:56 10° ENE 20:46:17 54° NNW 20:52:36 10° W
Cosmos 1833 Rocket 4.4 20:43:39 10° SE 20:46:37 15° E 20:49:38 10° ENE
SPOT 3 Rocket 3.7 20:42:12 10° SSE 20:47:16 62° ENE 20:52:21 10° N
Cosmos 1818 4.3 20:44:30 10° S 20:49:17 32° ESE 20:54:07 10° NE
IRS-1C Rocket 4.4 20:44:42 10° S 20:49:56 67° WSW 20:55:12 10° NNW
Cosmos 2279 Rocket 4.4 20:44:50 10° NNW 20:50:59 66° W 20:57:06 10° S
Cosmos 2369 Rocket 4.4 20:48:03 10° NW 20:51:58 20° W 20:55:52 10° SW
Cosmos 1805 3.8 20:48:29 10° N 20:52:00 39° ENE 20:54:54 14° SE
Cosmos 1656 4.1 20:47:01 10° NNW 20:52:23 53° NE 20:57:19 12° SE
Nadezhda 4 Rocket 4.1 20:47:25 10° S 20:53:28 59° E 20:59:38 10° NNE
Okean-O 4.1 20:50:03 10° SSW 20:54:03 33° W 20:58:04 10° NNW
Cosmos 1603 3.9 20:48:28 10° SSW 20:54:09 78° WNW 20:59:55 10° NNE
USA 245 2.2 20:52:10 12° S 20:54:11 71° WSW 20:56:48 10° NNW
ERS-1 Rocket 3.1 20:49:42 10° SSE 20:54:44 80° WSW 20:59:48 10° NNW
Okean 1 3.2 20:51:22 10° S 20:55:15 87° WNW 20:59:11 10° N
Cosmos 614 Rocket 4.2 20:54:50 10° S 20:59:50 50° ESE 21:04:53 10° NNE
Cosmos 1500 Rocket 3.7 20:57:02 10° NNW 21:01:19 70° W 21:05:35 10° S
Cosmos 44 Rocket 4.5 20:56:54 10° NNW 21:01:32 36° NE 21:06:00 10° ESE
Cosmos 1975 3.4 20:59:31 10° N 21:03:16 41° ENE 21:06:07 16° SE
SL-8 R/B 3.6 21:05:46 10° W 21:10:31 78° S 21:15:18 10° E
USA 59 Rocket 0.3 21:06:59 10° NW 21:10:51 64° SW 21:15:05 16° SSE
Cosmos 1805 Rocket 3.9 21:08:20 10° NNW 21:12:42 65° W 21:16:58 11° S
Meteor 1-19 Rocket 4.3 21:07:35 10° SSW 21:13:26 87° W 21:19:08 10° NNE
NOSS 2-1 (E) 3.9 21:09:48 10° NW 21:13:40 61° SW 21:17:49 16° SSE
Sich 1 3.4 21:09:24 10° NNW 21:13:44 62° W 21:17:57 11° S
Cosmos 1536 4.3 21:12:58 10° NNW 21:16:28 32° W 21:19:58 10° SSW
Cosmos 1633 Rocket 3.7 21:12:32 10° N 21:16:46 43° ENE 21:19:46 18° SE
Cosmos 1666 Rocket 3.7 21:17:31 10° N 21:21:47 57° ENE 21:24:43 19° SSE
GEOS 3 Rocket 4.4 21:19:04 10° ENE 21:23:35 30° ESE 21:27:03 15° S
Spot 1 4.0 21:20:35 10° NNE 21:24:40 61° ESE 21:28:15 14° S
NOSS 2-1 (D) 4.3 21:22:55 10° NW 21:26:42 45° SW 21:30:22 17° SSE
Terra 2.6 21:22:27 10° S 21:27:00 47° W 21:31:34 10° NNW
Cosmos 2026 Rocket 4.1 21:26:45 14° S 21:32:07 62° E 21:38:14 10° NNE
Cosmos 1992 Rocket 4.1 21:28:08 10° NNW 21:33:23 77° WSW 21:37:11 19° SSE
Cosmos 1697 Rocket 3.1 21:37:34 10° NNW 21:43:07 55° NE 21:47:10 18° SE
NOSS 3-3 (A) 3.7 21:42:23 10° SSW 21:47:49 70° SE 21:54:11 10° NE
Cosmos 1340 4.4 21:46:11 10° NW 21:48:54 22° W 21:51:36 10° SW
USA 281 3.3 21:44:56 19° SSE 21:49:55 76° WSW 21:56:33 10° NNW
MOS 1 Rocket 4.4 21:45:42 12° SSW 21:50:14 45° W 21:55:26 10° NNW
Cosmos 1980 Rocket 3.3 21:47:26 10° NNW 21:52:42 37° NE 21:57:19 13° ESE
Cosmos 1707 4.2 21:52:01 19° ESE 21:52:54 20° E 21:55:38 10° NE
Orbus 7S? 4.0 21:47:50 10° SSW 21:53:03 37° SE 21:56:03 10° ENE
ALOS 2 4.5 21:51:27 12° ESE 21:54:15 20° ENE 21:57:29 10° NNE
Lacrosse 4 Rocket 2.3 21:52:45 10° NW 21:56:34 38° WSW 21:58:43 22° S
Lacrosse 5 rocket 2.6 21:53:39 10° NW 21:57:40 39° NNE 22:01:32 10° E
Cosmos 1140 Rocket 4.2 21:55:40 23° SSE 21:58:10 37° ESE 22:02:56 10° NE
NOSS 3-4 (A) 4.0 21:56:55 10° NW 22:03:37 71° NE 22:10:02 16° SE
NOSS 3-4 (C) 4.0 21:57:01 10° NW 22:03:43 70° NE 22:10:09 16° SE
Meteor 2-4 Rocket 4.0 21:58:17 11° SSW 22:03:55 74° WNW 22:09:53 10° N
H-2A R/B 3.4 22:02:00 22° ESE 22:04:12 40° ENE 22:08:13 10° N
Cosmos 1066 Rocket 4.3 22:00:45 21° S 22:04:48 70° E 22:10:39 10° NNE
Cosmos 1553 Rocket 4.0 22:00:17 10° N 22:06:22 72° ENE 22:10:15 24° SSE
Cosmos 1626 2.1 22:06:08 25° SSW 22:07:49 61° WNW 22:11:01 10° N
Cosmos 1842 3.8 22:07:26 31° SE 22:08:31 39° E 22:11:58 10° NNE
BREEZE-M DEB (TANK) 1.6 22:06:51 10° W 22:08:55 82° S 22:10:18 25° E
BREEZE-M DEB (TANK) 4.1 22:11:16 11° SSW 22:15:20 49° SE 22:30:39 10° ENE
CZ-2C R/B 3.6 22:15:01 10° NNE 22:19:30 71° ESE 22:21:42 29° S
KORONAS-FOTON 4.1 22:18:54 36° SE 22:19:58 48° E 22:23:33 10° NNE
ARIANE 5 R/B 2.5 22:18:32 31° SSE 22:20:34 89° E 22:24:54 10° NNW
NOSS 3-3 (C) 3.9 22:15:25 10° SW 22:20:55 81° NW 22:27:31 10° NE
Cosmos 1674 2.4 22:21:29 41° SSE 22:22:30 66° E 22:25:59 10° NNE
Cosmos 2285 Rocket 4.3 22:21:35 25° S 22:25:08 52° ESE 22:31:16 10° NNE
USA 234 4.3 22:22:29 10° ENE 22:28:42 48° N 22:34:55 10° WNW
Cosmos 1766 3.7 22:25:29 10° NNW 22:29:07 49° W 22:30:39 29° SSW
Cosmos 1833 Rocket 2.6 22:25:16 17° SSW 22:29:39 84° ESE 22:35:18 10° NNE
Cosmos 1763 Rocket 4.2 22:25:11 10° NNW 22:30:20 47° ENE 22:33:32 21° SE
SL-16 R/B 4.2 22:26:26 10° NNW 22:30:54 23° NE 22:35:21 10° E
Cosmos 1328 Rocket 4.4 22:27:53 16° SW 22:31:03 45° WNW 22:35:13 10° N
Cosmos 1818 4.3 22:27:15 10° WSW 22:32:37 56° NW 22:38:03 10° NE
H-2A R/B 4.0 22:33:56 10° NE 22:36:38 16° E 22:37:41 15° ESE
Cosmos 407 Rocket 3.7 22:34:46 30° SSE 22:37:06 52° ESE 22:42:12 10° NNE
Cosmos 724 4.3 22:34:15 20° SSW 22:38:18 66° ESE 22:44:06 10° NE
Cosmos 1515 Rocket 3.6 22:38:30 29° SSW 22:40:39 75° WNW 22:44:58 10° N
Cosmos 2082 Rocket 3.0 22:38:48 27° SE 22:40:48 34° ESE 22:45:55 10° NE
Cosmos 2266 Rocket 4.2 22:38:38 28° SSE 22:41:58 61° E 22:48:10 10° NNE
Cosmos 1470 2.6 22:38:55 10° NNW 22:42:37 74° W 22:43:42 43° S
BREEZE-M DEB (TANK) 3.2 22:42:14 41° S 22:42:49 46° SSE 22:48:53 10° ENE
Cosmos 44 Rocket 3.7 22:38:25 10° NW 22:43:09 47° WSW 22:44:56 32° S
Cosmos 1733 Rocket 4.5 22:42:21 10° N 22:46:08 28° ENE 22:48:08 20° ESE
Meteor 1-13 Rocket 4.4 22:46:34 29° S 22:49:38 66° E 22:55:26 10° NNE
Cosmos 1869 Rocket 3.5 22:47:49 10° N 22:52:13 78° E 22:53:51 38° SSE
SL-8 R/B 3.9 22:48:11 10° W 22:52:44 47° SSW 22:54:05 36° SSE
Cosmos 2228 Rocket 4.1 22:58:02 28° SE 22:59:25 35° E 23:03:31 10° NNE
USA 59 Rocket 2.8 22:59:55 10° WSW 23:00:20 10° WSW 23:00:47 10° WSW
Meteor 2-10 Rocket 4.1 22:54:37 10° N 23:00:23 59° ENE 23:03:24 27° SE
Cosmos 1655 Rocket 4.2 22:57:29 29° SSE 23:00:45 60° E 23:07:03 10° NNE
Cosmos 2251 Rocket 3.5 22:59:14 31° S 23:01:46 75° ESE 23:07:04 10° NNE
GEOS 3 Rocket 4.0 22:56:44 10° NE 23:01:54 65° NW 23:06:57 10° WSW
Cosmos 1908 3.3 23:02:17 10° NNW 23:05:48 57° W 23:06:34 45° SW
Meteor 1-22 Rocket 4.1 23:01:22 10° N 23:06:45 84° ENE 23:09:19 33° SSE
Cosmos 1346 Rocket 3.9 23:09:10 10° N 23:12:44 34° ENE 23:14:08 26° ESE
Cosmos 1400 Rocket 3.1 23:15:48 43° SE 23:16:42 53° E 23:20:35 10° NNE
Cosmos 2278 4.5 23:11:14 10° NNW 23:16:48 49° NE 23:21:02 17° ESE
GP-B 3.4 23:12:47 10° N 23:17:08 55° E 23:18:36 37° SE
Meteor 1-15 Rocket 4.2 23:14:00 10° NNW 23:19:38 78° W 23:22:13 33° S
Cosmos 2322 Rocket 3.7 23:21:38 10° NNW 23:26:44 33° NE 23:31:48 10° ESE
Cosmos 1697 Rocket 3.9 23:22:02 10° NW 23:26:46 28° WSW 23:28:53 22° SW
Cosmos 1862 Rocket 4.1 23:26:10 35° SE 23:27:24 46° E 23:31:35 10° NNE
Cosmos 1707 3.9 23:26:18 24° WSW 23:27:43 32° WNW 23:31:01 10° N
ALOS 2 2.9 23:28:50 38° SSW 23:30:14 55° W 23:34:34 10° NNW
Cosmos 1356 Rocket 4.0 23:29:58 37° SE 23:30:57 44° E 23:34:56 10° NNE
USA 267 4.0 23:28:12 10° ENE 23:33:58 32° SE 23:35:51 28° SSE
In-Cosmos 22 4.4 23:31:11 28° SSW 23:34:19 68° WNW 23:40:01 10° N
PSLV R/B 3.6 23:30:58 10° NNE 23:35:27 71° ESE 23:36:50 42° S
Cosmos 1300 2.4 23:32:02 10° N 23:35:38 89° WSW 23:36:14 60° S
Cosmos 1441 Rocket 4.0 23:32:27 10° NNW 23:35:44 34° W 23:36:17 32° WSW
Lacrosse 5 rocket 1.2 23:32:05 10° WNW 23:36:14 64° SW 23:37:07 49° SSE
Cosmos 1980 Rocket 2.6 23:31:24 10° NW 23:36:52 47° WSW 23:39:03 32° SSW
H-2A R/B 4.0 23:37:59 21° WSW 23:39:16 24° W 23:42:48 10° NW
Cosmos 2333 Rocket 3.9 23:34:16 10° NNW 23:39:19 31° NE 23:44:21 10° ESE
Meteor 1-4 Rocket 4.2 23:41:04 17° E 23:41:04 17° E 23:43:06 10° NE
Cosmos 1953 3.5 23:40:20 10° N 23:43:55 33° ENE 23:45:27 24° ESE
SL-14 R/B 3.1 23:48:27 50° SSW 23:49:22 78° W 23:53:13 10° N
Cosmos 1707 Rocket 3.5 23:49:21 42° SSW 23:50:52 86° W 23:55:21 10° N
Cosmos 841 Rocket 3.6 23:47:52 10° NNW 23:53:08 74° ENE 23:55:58 28° SE
RESURS DK-1 4.4 23:50:14 10° N 23:53:40 25° NE 23:57:04 10° ESE
